Orbital Elements at Epoch 2459000.5 (2020-May-31.0) TDB
Reference: JPL 17 (heliocentric ecliptic J2000)
Element | Value | Uncertainty (1-sigma) | Units |
e | .205558921440958 | 4.1975e-08 | |
a | 3.178537482654714 | 2.4749e-08 | au |
q | 2.525160745960553 | 1.3607e-07 | au |
i | .3234718698259828 | 5.4908e-06 | deg |
node | 193.1909626296064 | 0.00082136 | deg |
peri | 126.9367799599574 | 0.00082149 | deg |
M | 17.11612099985799 | 1.3002e-05 | deg |
tp | 2458902.089309313083 (2020-Feb-22.58930931) | 7.4426e-05 | TDB |
period | 2069.852663905796 5.67 | 2.4174e-05 6.618e-08 | d yr |
n | .1739254229432363 | 2.0313e-09 | deg/d |
Q | 3.831914219348875 | 2.9836e-08 | au |
|
| | Orbit Determination Parameters
Additional Information
|